Regional Weather Roundup
Issued by NWS New Orleans/Baton Rouge, LA

Home | Current Version | Previous Version | Graphics & Text | Print | Product List | Glossary On
Versions: 1 2 3 4 5 6 7 8 9 10 11 12 13 14 15 16 17 18 19 20 21 22 23 24 25 26 27 28 29 30 31 32 33 34 35 36 37 38 39 40 41 42 43 44 45 46 47 48 49 50
732
ASUS44 KLIX 241610
RWRLIX
NEW ORLEANS REGIONAL WEATHER ROUNDUP
NATIONAL WEATHER SERVICE NEW ORLEANS LA
1100 AM CDT FRI OCT 24 2014

NOTE: "FAIR" INDICATES FEW OR NO CLOUDS BELOW 12,000 FEET WITH NO
      SIGNIFICANT WEATHER AND/OR OBSTRUCTIONS TO VISIBILITY.
      SKY/WX - SKY CONDITION AND SIGNIFICANT WEATHER.
      TMP - AIR TEMPERATURE.     DP    - DEWPOINT TEMPERATURE.
      RH  - RELATIVE HUMIDITY.   PRES  - PRESSURE.
      HI  - HEAT INDEX.          WCI   - WIND CHILL INDEX.

*  THESE STATIONS ARE NOT NWS OR FAA STATIONS AND ARE NOT UNDER
   NWS QUALITY CONTROL.

LAZ038-040-048-061>063-065>067-069-241700-
SOUTHEAST LOUISIANA

CITY           SKY/WX    TMP DP  RH WIND       PRES   REMARKS
N.O. AUDUBON     N/A     73  53  48 MISG        N/A
N.O. INTL ARPT MOSUNNY   69  52  54 N7        30.12S
N.O. LAKEFRONT SUNNY     68  51  54 NE5       30.12F
N.O. DOWNTOWN*   N/A     70  46  43 N6        30.12F
SLIDELL        SUNNY     68  50  52 VRB3      30.12S
BATON ROUGE    SUNNY     67  49  52 N5        30.14F
BOOTHVILLE     SUNNY     72  54  53 VRB6      30.11S
BELLE CHASSE   MOSUNNY   72  53  51 VRB3      30.11F
BOGALUSA*        N/A     68  47  46 NE6       30.14S
NEW ROADS*       N/A     64  52  66 NW3       30.15S
GONZALES*        N/A     67  52  58 CALM      30.13S
HAMMOND*       SUNNY     70  46  43 N5        30.14F
HOUMA*         SUNNY     70  52  52 N8        30.12S
PORT FOURCHON* SUNNY     72  54  53 NE8       30.14S

$$

MSZ070-080>082-241700-
SOUTHERN MISSISSIPPI

CITY           SKY/WX    TMP DP  RH WIND       PRES   REMARKS
MCCOMB         SUNNY     66  48  52 N7        30.14S
GULFPORT       MOSUNNY   70  48  45 N6        30.10F
BILOXI         SUNNY     69  48  47 N3        30.10F
PASCAGOULA     SUNNY     70  47  43 NE5       30.09F
STENNIS ARPT*  SUNNY     68  45  42 CALM      30.11F

$$

COASTAL OBSERVATIONS
LAKE AND NEARSHORE STATIONS

STATION/POSITION TIME  TEMP    WIND        PRES    WAVE
                       AIR SEA DIR/SP/G            HT/PER
                 (UTC) (F)     (DEG/KT/KT) (MB)    (FT/S)
PASCAGOULA       1600   70      20/  2/  4 1018.5
WAVELAND YACHT   1600   65     350/  2/  2 1018.6
GRAND ISLE       1600   69 73   50/  6/  8 1020.0
SOUTHWEST PASS   1600   72 80   10/  8/ 10 1019.5
NEW CANAL        1600   64 70   50/  5/  6 1020.2
SHELL BEACH      1600   65 65   20/  7/  8 1019.5

OFFSHORE STATIONS

STATION/POSITION TIME  TEMP    WIND        PRES    WAVE
                       AIR SEA DIR/SP/G            HT/PER
                 (UTC) (F)     (DEG/KT/KT) (MB)    (FT/S)
64 S DAUPHIN ISL 1505   71 79   10/ 10/ 14 1019.2    3/ 7

$$




USA.gov is the U.S. government's official web portal to all federal, state and local government web resources and services.